Regional Weather Roundup
Issued by NWS

Home | Current Version | Previous Version | Graphics & Text | Print | Product List | Glossary On
Versions: 1 2 3 4 5 6 7 8 9 10 11 12 13 14 15 16 17 18 19 20 21 22 23 24 25 26 27 28 29 30 31 32 33 34 35 36 37 38 39 40 41 42 43 44 45 46 47 48 49 50
000
ASUS43 KDTX 271110
RWRMI
MICHIGAN HOURLY REGIONAL WEATHER ROUNDUP
NATIONAL WEATHER SERVICE DETROIT/PONTIAC MI
600 AM EST THU NOV 27 2014

NOTE: "FAIR" INDICATES FEW OR NO CLOUDS BELOW 12,000 FEET WITH NO
SIGNIFICANT WEATHER AND/OR OBSTRUCTION TO VISIBILITY.

MIZ047>049-052>055-059>063-066>070-074>076-081>083-271200-
SOUTHEAST LOWER MICHIGAN

CITY           SKY/WX    TMP DP  RH WIND       PRES   REMARKS
ADRIAN         CLOUDY    28  22  78 NW7       30.13R
ALMA           CLOUDY    29  25  85 NW8       30.13S
ANN ARBOR      CLOUDY    27  19  72 NW7       30.11R
BAD AXE        CLOUDY    28  24  86 W6        30.08S
DETROIT CITY   CLOUDY    31  20  63 N8        30.11R
DETROIT        CLOUDY    26  20  77 NW3       30.12R
FLINT          CLOUDY    29  23  78 W5        30.11S
GROSSE ILE     CLOUDY    30  23  74 NW9       30.10S
HILLSDALE      CLOUDY    27  22  83 NW3       30.12R
HOWELL         CLOUDY    28  21  78 W7        30.10S

CITY           SKY/WX    TMP DP  RH WIND       PRES   REMARKS
JACKSON        CLOUDY    27  20  75 W5        30.12R
LAMBERTVILLE   PTCLDY    30  25  80 NW5       30.13R
LANSING        CLOUDY    28  21  75 NW9       30.13S
LAPEER         NOT AVBL
MASON          CLOUDY    28  23  79 W8        30.11S
MONROE         CLOUDY    28  25  86 CALM      30.10S
MT. CLEMENS    CLOUDY    29  24  84 NW7       30.08R
PONTIAC        PTCLDY    24  19  81 W6        30.08S
PORT HOPE        N/A     31  24  75 NW7       30.05S
PORT HURON     CLOUDY    28  23  80 NW8       30.09S
TRI CITIES     CLOUDY    29  23  78 W6        30.12S
YPSILANTI      CLOUDY    31  20  63 NW7       30.12R
$$
MIZ043>046-050>051-056>058-064>065-071>073-077>080-271200-
SOUTHWEST LOWER MICHIGAN

CITY           SKY/WX    TMP DP  RH WIND       PRES   REMARKS
BATTLE CREEK   CLOUDY    29  21  72 W7        30.15R
BENTON HARBOR  LGT SNOW  27  24  89 CALM      30.18R FOG
BIG RAPIDS     LGT SNOW  26  25  94 CALM      30.12S
COLDWATER      CLOUDY    30  24  78 NW3       30.14R
HOLLAND        LGT SNOW  30  25  81 CALM      30.17S
GRAND RAPIDS   CLOUDY    28  22  78 W7        30.15S
KALAMAZOO      CLOUDY    28  21  75 W6        30.16R
MARSHALL       CLOUDY    27  22  81 W3        30.13S
MUSKEGON       LGT SNOW  30  24  78 N5        30.17S
$$
MIZ016>042-271200-
NORTHERN LOWER MICHIGAN

CITY           SKY/WX    TMP DP  RH WIND       PRES   REMARKS
ALPENA         CLOUDY    25  23  92 NW3       30.09S
BEAVER ISLAND  CLOUDY    25  18  76 N15G22    30.18R
BELLAIRE       LGT SNOW  28  25  89 N8        30.14S
CADILLAC       LGT SNOW  24  21  91 NW3       30.10R
CHARLEVOIX     CLOUDY    26  22  84 N20G26    30.18R FOG
FRANKFORT      LGT SNOW  29  27  91 N9G17     30.15S
GAYLORD        CLOUDY    23  21  92 NW3       30.08S
GRAYLING       FLURRIES  26  23  89 NW7       30.10S
HARBOR SPRINGS CLOUDY    25  21  83 N9G17     30.14R
HOUGHTON LAKE  LGT SNOW  25  22  88 NW7       30.10S FOG
MANISTEE       CLOUDY    28  23  80 NE5       30.16R
OSCODA         CLOUDY    27  23  85 NW9       30.07R
PELLSTON       LGT SNOW  25  20  81 N13       30.14R
TRAVERSE CITY  LGT SNOW  29  23  78 NW15G22   30.14R
$$
MIZ007>008-015-271200-
EASTERN UPPER MICHIGAN

CITY           SKY/WX    TMP DP  RH WIND       PRES   REMARKS
KINROSS        MOCLDY    23  21  93 NW13      30.11S
MACKINAC ISLAN CLOUDY    25  20  83 N12G21    30.13S
NEWBERRY       FLURRIES  19  16  87 NW10G17   30.16S
S. S. MARIE    FLURRIES  25  16  68 NW15G23   30.14R
$$
MIZ004>006-011>014-085-271200-
CENTRAL UPPER MICHIGAN

CITY           SKY/WX    TMP DP  RH WIND       PRES   REMARKS
MANISTIQUE     CLOUDY    20  16  84 N17G23    30.18F
ESCANABA       CLOUDY    18   9  68 NW12G23   30.23R
MENOMINEE      CLOUDY    19  10  68 N13       30.24S
SAWYER-GWINN   PTCLDY     8   4  84 NW7       30.22S
$$
MIZ001>003-009>011-084-271200-
WESTERN UPPER MICHIGAN

CITY           SKY/WX    TMP DP  RH WIND       PRES   REMARKS
IRON MOUNTAIN  PTCLDY    10   4  76 NW7       30.24R
HOUGHTON       FLURRIES   8   0  69 N10       30.28R WCI  -6
COPPER HARBOR    N/A     15   8  73 NE18G26   30.29S WCI  -2
IRONWOOD       CLOUDY    10   7  85 NW8       30.30R
$$

ABBREVIATIONS USED IN REMARKS
   TC - TEMPERATURE IN CELSIUS
  WCI - WIND CHILL INDEX
   HX - HEAT INDEX
  VSB - VISIBILITY



USA.gov is the U.S. government's official web portal to all federal, state and local government web resources and services.